Simultaneous Nadir Overpasses (SNOs) Predictions

Prediction of SNOs near US between AQUA and NPP Satellite Orbit:

Table of predicted SNOs near US for the next 10.0 days since TLE Epoch: 6/13/2014
Index Date (AQUA) Time (AQUA) AQUA Lat,Lon Date (NPP) Time (NPP) NPP Lat,Lon Distance(km) Time Diff (sec)
1 06/14/2014 17:28:01 49.97, -67.86 06/14/2014 17:26:20 49.73, -69.24 102.42 101
2 06/14/2014 19:06:02 46.88, -91.35 06/14/2014 19:06:54 46.51, -93.25 151.23 52
3 06/14/2014 20:42:23 37.87,-113.03 06/14/2014 20:45:46 37.40,-115.40 214.59 203
4 06/17/2014 06:56:40 20.03, -77.21 06/17/2014 06:51:07 19.94, -76.77 47.47 333
5 06/17/2014 08:32:20 31.65, -99.05 06/17/2014 08:29:17 31.65, -99.07 1.29 183
6 06/17/2014 10:06:41 47.91,-118.58 06/17/2014 10:06:06 47.96,-118.89 23.79 35
7 06/19/2014 21:04:15
